Starlink 11648

operational
NORAD ID: 63313 Int'l Des: 2025-057 Owner: SPXS Country: US Constellation: starlink
LEOCIRCULAR

Starlink 11648について

説明を読み込み中...

リアルタイム位置

3D地球を読み込み中...

次回通過

高度履歴

Altitude vs Time

uPlot chart will show altitude changes over time

軌道要素

1 63313U 25057G 25353.11846811 .00180438 00000-0 13730-2 0 9993
2 63313 43.0019 30.3857 0001765 184.2318 175.8535 15.70950114 44507
Epoch: Dec 19, 2025 • Age: 15 hours

現在のステータス

高度 364.6 km
速度 7.69 km/s
衛星直下点 -31.21°S, 10.6°W
打ち上げ日 Mar 18, 2025
運用期間 0.7 years
タイプ internet

技術仕様

分類 Payload
質量 960.00 kg
乾燥質量 910.00 kg
総質量 960.00 kg
長さ 0.30 m
直径 4.10 m
スパン 29.00 m
形状 Box + pan
製造者 SPXS
バスタイプ Starlink V2MD
フェーズステータス In Orbit
所有者/国 SPXS/US

大規模コンステレーション

Loading constellations...